San Jose, Costa Rica

10:29 AM CST on June 26, 2017 (GMT -0600)
Juan Santamaria International

Weather History for MROC - January, 2000

Change the Weather History Date:

Tuesday, January 25, 2000

  Actual Average Record
Temperature  
Mean Temperature 72 °F -  
Max Temperature 82 °F 81 °F 86 °F (2004)
Min Temperature 62 °F 64 °F 58 °F (2017)
Cooling Degree Days 7    
Growing Degree Days 22 (Base 50)    
Moisture  
Dew Point 58 °F    
Average Humidity 65    
Maximum Humidity 88    
Minimum Humidity 45    
Precipitation  
Precipitation 0.00 in 0.01 in - ()
Sea Level Pressure  
Sea Level Pressure 29.96 in    
Wind  
Wind Speed 12 mph ()    
Max Wind Speed 24 mph    
Max Gust Speed -    
Visibility 6.2 miles    
Events      
Averages and records for this station are not official NWS values.
T = Trace of Precipitation, MM = Missing Value Source: Averaged Metar Reports

Daily Weather History Graph

Daily Weather History Graph

Search for Another Location

Airport or City:

Trip Planner

Search our weather history database for the weather conditions in past years. The results will help you decide how hot, cold, wet, or windy it might be!

Date:

Astronomy

Jan. 25, 2000 Rise Set
Actual Time 5:59 AM CST 5:38 PM CST
Civil Twilight 5:37 AM CST 6:01 PM CST
Nautical Twilight 5:11 AM CST 6:26 PM CST
Astronomical Twilight 4:46 AM CST 6:52 PM CST
Moon 10:03 PM CST (1/25) 9:41 AM CST (1/25)
Length of Visible Light 12h 23m
Length of Day
11h 39m
Waning Gibbous, 75% of the Moon is Illuminated
Jan 25
Waning Gibbous
Jan 28
Last Quarter
Feb 5
New
Feb 12
First Quarter
Feb 19
Full

Hourly Weather History & Observations

Time (CST) Temp. Heat Index Dew Point Humidity Pressure Visibility Wind Dir Wind Speed Gust Speed Precip Events Conditions
12:00 AM 64.4 °F - 60.8 °F 88% 29.95 in - NE 6.9 mph - N/A   Clear
1:00 AM 64.4 °F - 60.8 °F 88% 29.92 in - North - - N/A   Clear
3:00 AM 62.6 °F - 59.0 °F 88% 29.92 in - NE 5.8 mph - N/A   Clear
5:00 AM 64.4 °F - 59.0 °F 83% 29.97 in - ENE 8.1 mph - N/A   Clear
6:00 AM 68.0 °F - 59.0 °F 73% 29.94 in - ESE 12.7 mph - N/A   Clear
7:00 AM 69.8 °F - 60.8 °F 73% 29.97 in - ESE 16.1 mph - N/A   Clear
8:00 AM 73.4 °F - 62.6 °F 69% 29.98 in - East 18.4 mph - N/A   Clear
9:00 AM 75.2 °F - 62.6 °F 65% 30.00 in - East 24.2 mph - N/A   Clear
10:00 AM 78.8 °F - 60.8 °F 54% 29.99 in 6.2 mi East 24.2 mph - N/A   Partly Cloudy
11:00 AM 80.6 °F 81.1 °F 59.0 °F 48% 29.98 in 6.2 mi East 20.7 mph - N/A   Partly Cloudy
12:00 PM 80.6 °F 81.1 °F 59.0 °F 48% 29.95 in 6.2 mi East 16.1 mph - N/A   Partly Cloudy
1:00 PM 82.4 °F 82.5 °F 59.0 °F 45% 29.93 in - ESE 19.6 mph - N/A   Clear
2:00 PM 80.6 °F 81.5 °F 60.8 °F 51% 29.91 in 6.2 mi SE 13.8 mph - N/A   Partly Cloudy
3:00 PM 80.6 °F 81.5 °F 60.8 °F 51% 29.91 in 6.2 mi East 12.7 mph - N/A   Partly Cloudy
4:00 PM 77.0 °F - 59.0 °F 54% 29.93 in - SE 12.7 mph - N/A   Clear
5:00 PM 73.4 °F - 57.2 °F 57% 29.94 in - ESE 17.3 mph - N/A   Clear
6:00 PM 68.0 °F - 57.2 °F 68% 29.95 in 6.2 mi East 4.6 mph - N/A   Partly Cloudy
7:00 PM 68.0 °F - 53.6 °F 60% 29.98 in - East 17.3 mph - N/A   Clear
8:00 PM 66.2 °F - 53.6 °F 64% 30.01 in - East 15.0 mph - N/A   Clear
9:00 PM 66.2 °F - 55.4 °F 68% 30.02 in - ESE 16.1 mph - N/A   Clear
10:00 PM 64.4 °F - 53.6 °F 68% 30.03 in - ENE 10.4 mph - N/A   Unknown
11:00 PM 64.4 °F - 51.8 °F 64% 30.03 in - East 8.1 mph - N/A   Clear